OK2CME-6 Weather Reports


Display with metric or nautical units.
time (UTC)temp
F
wind
direction
speed
MPH
gust
MPH
rain 1hr
in
rain 24hr
in
rain mn
in
humidity
%
barometer
mb
20260506202003 62 185 9.0 19.0 0.00 0.00 0.00 67 1009.9
20260506200003 62 182 9.0 18.0 0.00 0.00 0.00 65 1010.0
20260506194003 63 177 9.0 21.0 0.00 0.00 0.00 64 1009.9
20260506192003 63 185 7.0 17.0 0.00 0.00 0.00 62 1010.0
20260506190003 64 195 9.0 18.0 0.00 0.00 0.00 61 1009.8
20260506184003 64 186 8.0 19.0 0.00 0.00 0.00 60 1009.4
20260506182003 65 189 7.0 19.0 0.00 0.00 0.00 59 1009.5
20260506180004 66 176 5.0 13.0 0.00 0.00 0.00 58 1009.6
20260506174003 67 171 7.0 17.0 0.00 0.00 0.00 56 1009.4
20260506172003 68 176 9.0 22.0 0.00 0.00 0.00 55 1009.6
20260506170003 68 148 7.0 19.0 0.00 0.00 0.00 54 1009.4
20260506164003 69 155 7.0 18.0 0.00 0.00 0.00 53 1009.7
20260506162003 69 195 7.0 19.0 0.00 0.00 0.00 53 1010.1
20260506160003 68 149 7.0 18.0 0.00 0.00 0.00 54 1010.6
20260506154003 69 190 10.0 22.0 0.00 0.00 0.00 53 1010.8
20260506152003 69 177 10.0 22.0 0.00 0.00 0.00 54 1010.8
20260506150003 68 185 8.0 19.0 0.00 0.00 0.00 56 1010.7
20260506144003 68 182 8.0 18.0 0.00 0.00 0.00 58 1010.9
20260506040545 51 281 2.0 6.0 0.00 0.00 0.00 85 1011.1
20260506034545 51 335 0.0 1.0 0.00 0.00 0.00 84 1011.1
20260506032545 51 297 1.0 3.0 0.00 0.00 0.00 82 1011.1
20260506030545 51 317 1.0 3.0 0.00 0.00 0.00 82 1011.4
20260506024545 52 336 1.0 3.0 0.00 0.00 0.00 81 1010.9
20260506022545 52 280 2.0 4.0 0.00 0.00 0.00 80 1010.7
20260506020545 53 315 1.0 3.0 0.00 0.00 0.00 78 1010.9
20260506014545 54 277 2.0 6.0 0.00 0.00 0.00 77 1010.7
20260506012545 54 304 1.0 3.0 0.00 0.00 0.00 77 1010.7
20260506010545 54 262 2.0 6.0 0.00 0.00 0.00 75 1010.5
20260506004545 55 195 4.0 8.0 0.00 0.00 0.00 74 1010.6
20260506002545 55 207 3.0 9.0 0.00 0.00 0.00 74 1010.6
20260506000545 55 136 3.0 7.0 0.00 0.00 0.00 73 1010.1
20260505234545 56 165 4.0 9.0 0.00 0.00 0.00 72 1010.3